contact:dominique.lefevre@mio.osupytheas.fr, maurice.libes@osupytheas.fr, didier.mallarino@osupytheas.fr
Project:EMSO http://www.emso-fr.org/EMSO-France
Depth: 2436.0 m
Title:EMSO Ligure Ouest : Data MII capteur AQUADOPP
Date,Latitude,Longitude,X_East,Y_North,Z_Up,Amplitude_X,Amplitude_Y,Amplitude_Z,Batterie,SoundSpeed,Heading,Pitch,Roll,Pressure,TIS,Speed,Direction
, degrees North, degrees East, m.s-1, m.s-1,m.s-1, 1, 1, 1, Volt, m.s-1, degree, degree, degree, dbar, degree_C, m.s-1, degree
2022-06-28T00:04:03,42.805,6.029,0.007,0.011,-0.025,105.0,103.0,102.0,13.3,1505.2,320.6,-0.8,1.9,2470.917,13.28,0.013,32.5
2022-06-28T00:07:03,42.805,6.029,0.017,-0.002,-0.019,106.0,105.0,102.0,13.4,1505.2,320.9,-0.7,1.8,2470.905,13.28,0.017,96.7
2022-06-28T00:10:03,42.805,6.029,0.02,-0.007,0.007,105.0,104.0,103.0,13.3,1505.2,325.7,-0.7,1.8,2470.894,13.28,0.021,109.3
2022-06-28T00:13:03,42.805,6.029,0.007,0.002,-0.045,105.0,104.0,102.0,13.4,1505.2,331.2,-0.7,1.8,2470.866,13.29,0.007,74.1
2022-06-28T00:16:03,42.805,6.029,0.041,-0.008,-0.007,105.0,103.0,103.0,13.4,1505.2,324.9,-0.8,1.8,2470.891,13.29,0.041,101.0
2022-06-28T00:19:03,42.805,6.029,0.011,0.009,0.016,106.0,104.0,101.0,13.3,1505.2,320.4,-0.8,1.8,2470.879,13.29,0.014,50.7
2022-06-28T00:22:03,42.805,6.029,0.015,-0.01,-0.024,107.0,104.0,102.0,13.3,1505.2,324.9,-0.8,1.8,2470.881,13.29,0.018,123.7
2022-06-28T00:25:03,42.805,6.029,0.003,-0.019,-0.007,103.0,105.0,102.0,13.3,1505.2,323.0,-0.7,1.8,2470.89,13.29,0.019,171.0
2022-06-28T00:28:03,42.805,6.029,0.026,0.0,0.001,104.0,105.0,102.0,13.4,1505.2,327.8,-0.7,1.8,2470.88,13.29,0.026,90.0
2022-06-28T00:31:03,42.805,6.029,0.0,0.0,-0.013,105.0,103.0,103.0,13.4,1505.2,320.8,-0.8,1.8,2470.85,13.29,0.0,0.0
2022-06-28T00:34:03,42.805,6.029,0.013,-0.02,-0.002,105.0,106.0,102.0,13.3,1505.2,330.7,-0.7,1.8,2470.881,13.29,0.023,147.0
2022-06-28T00:37:03,42.805,6.029,0.018,-0.005,0.015,106.0,104.0,102.0,13.3,1505.2,320.4,-0.7,1.8,2470.874,13.29,0.018,105.5
2022-06-28T00:40:03,42.805,6.029,0.04,-0.005,-0.008,104.0,104.0,102.0,13.4,1505.2,322.8,-0.8,1.8,2470.896,13.29,0.04,97.1
2022-06-28T00:43:03,42.805,6.029,-0.004,-0.002,0.009,105.0,104.0,102.0,13.4,1505.2,333.6,-0.8,1.8,2470.846,13.29,0.004,243.4
2022-06-28T00:46:03,42.805,6.029,0.024,-0.014,-0.023,105.0,104.0,103.0,13.4,1505.2,322.1,-0.7,1.9,2470.84,13.29,0.027,120.3
2022-06-28T00:49:03,42.805,6.029,0.022,-0.004,-0.039,104.0,104.0,105.0,13.4,1505.2,324.7,-0.8,1.8,2470.882,13.29,0.022,100.3
2022-06-28T00:52:03,42.805,6.029,0.035,0.002,-0.02,104.0,104.0,103.0,13.3,1505.2,326.4,-0.7,1.8,2470.885,13.29,0.035,86.7
2022-06-28T00:55:03,42.805,6.029,0.005,-0.006,-0.018,104.0,105.0,103.0,13.3,1505.2,326.0,-0.8,1.8,2470.903,13.29,0.007,140.2
2022-06-28T00:58:03,42.805,6.029,0.0,-0.007,-0.004,102.0,104.0,102.0,13.4,1505.2,329.8,-0.8,1.8,2470.902,13.29,0.007,180.0
2022-06-28T01:04:03,42.805,6.029,0.006,-0.01,-0.021,104.0,105.0,103.0,13.4,1505.2,328.8,-0.8,1.8,2470.942,13.28,0.011,149.0
2022-06-28T01:07:03,42.805,6.029,-0.008,-0.013,-0.049,106.0,105.0,103.0,13.3,1505.2,322.8,-0.7,1.8,2470.831,13.28,0.015,211.6
2022-06-28T01:10:03,42.805,6.029,0.017,-0.011,-0.033,106.0,106.0,103.0,13.4,1505.2,331.5,-0.8,1.8,2470.895,13.28,0.02,122.9
2022-06-28T01:13:03,42.805,6.029,0.022,-0.012,-0.017,103.0,105.0,102.0,13.3,1505.2,326.1,-0.8,1.8,2470.89,13.29,0.025,118.6
2022-06-28T01:16:03,42.805,6.029,0.007,0.0,0.003,107.0,105.0,102.0,13.4,1505.2,330.1,-0.8,1.8,2470.902,13.29,0.007,90.0
2022-06-28T01:19:03,42.805,6.029,0.013,-0.016,-0.024,105.0,106.0,102.0,13.4,1505.2,326.8,-0.8,1.8,2470.856,13.29,0.02,140.9
2022-06-28T01:22:03,42.805,6.029,0.008,-0.007,-0.011,104.0,105.0,103.0,13.3,1505.2,333.4,-0.8,1.8,2470.863,13.29,0.01,131.2
2022-06-28T01:25:03,42.805,6.029,-0.002,-0.015,-0.021,106.0,105.0,104.0,13.4,1505.2,327.2,-0.7,1.8,2470.858,13.29,0.015,187.6
2022-06-28T01:28:03,42.805,6.029,0.036,-0.01,-0.022,105.0,106.0,102.0,13.4,1505.2,326.9,-0.8,1.8,2470.868,13.29,0.037,105.5
2022-06-28T01:31:03,42.805,6.029,0.002,-0.021,-0.017,105.0,104.0,103.0,13.4,1505.2,321.8,-0.7,1.8,2470.805,13.29,0.021,174.6
2022-06-28T01:34:03,42.805,6.029,0.017,0.004,-0.046,104.0,105.0,102.0,13.4,1505.2,320.8,-0.8,1.8,2470.836,13.29,0.017,76.8
2022-06-28T01:37:03,42.805,6.029,0.015,0.003,-0.001,105.0,103.0,102.0,13.3,1505.2,322.7,-0.8,1.8,2470.851,13.29,0.015,78.7
2022-06-28T01:40:03,42.805,6.029,0.025,-0.007,-0.022,104.0,104.0,103.0,13.3,1505.2,329.3,-0.7,1.8,2470.866,13.29,0.025,105.6
2022-06-28T01:43:03,42.805,6.029,0.023,-0.007,0.01,105.0,106.0,102.0,13.4,1505.2,324.1,-0.7,1.8,2470.894,13.29,0.024,106.9
2022-06-28T01:46:03,42.805,6.029,0.035,-0.029,-0.001,106.0,105.0,102.0,13.3,1505.2,330.3,-0.8,1.8,2470.855,13.29,0.045,129.6
2022-06-28T01:49:03,42.805,6.029,0.017,-0.001,0.01,106.0,104.0,102.0,13.4,1505.2,332.0,-0.8,1.8,2470.897,13.29,0.017,93.4
2022-06-28T01:52:03,42.805,6.029,0.014,-0.012,-0.016,104.0,104.0,102.0,13.3,1505.2,325.4,-0.8,1.8,2470.875,13.29,0.018,130.6
2022-06-28T01:55:03,42.805,6.029,0.008,-0.008,0.012,104.0,104.0,102.0,13.4,1505.2,332.9,-0.8,1.8,2470.859,13.29,0.011,135.0
2022-06-28T01:58:03,42.805,6.029,0.011,-0.025,-0.01,107.0,105.0,103.0,13.3,1505.2,327.7,-0.8,1.8,2470.836,13.29,0.027,156.3
2022-06-28T02:04:03,42.805,6.029,0.002,-0.017,-0.005,104.0,105.0,102.0,13.4,1505.2,327.1,-0.8,1.8,2470.933,13.28,0.017,173.3
2022-06-28T02:07:03,42.805,6.029,0.03,-0.003,-0.028,104.0,106.0,102.0,13.4,1505.2,321.8,-0.8,1.8,2470.86,13.28,0.03,95.7
2022-06-28T02:10:03,42.805,6.029,0.034,-0.026,-0.017,104.0,104.0,104.0,13.4,1505.2,323.4,-0.8,1.8,2470.884,13.28,0.042,127.4
2022-06-28T02:13:03,42.805,6.029,0.009,0.005,-0.025,106.0,103.0,103.0,13.4,1505.2,332.4,-0.7,1.9,2470.87,13.29,0.01,60.9
2022-06-28T02:16:03,42.805,6.029,0.012,-0.024,-0.019,106.0,105.0,103.0,13.3,1505.2,332.2,-0.8,1.8,2470.886,13.29,0.026,153.4
2022-06-28T02:19:03,42.805,6.029,0.031,-0.009,-0.014,104.0,115.0,103.0,13.4,1505.2,331.8,-0.7,1.8,2470.878,13.29,0.032,106.2
2022-06-28T02:22:03,42.805,6.029,0.028,0.001,-0.027,105.0,104.0,102.0,13.4,1505.2,324.5,-0.7,1.8,2470.862,13.29,0.028,88.0
2022-06-28T02:25:03,42.805,6.029,0.012,-0.01,0.001,104.0,104.0,104.0,13.3,1505.2,324.4,-0.8,1.8,2470.859,13.29,0.015,129.8
2022-06-28T02:28:03,42.805,6.029,0.012,-0.016,-0.019,106.0,105.0,102.0,13.4,1505.2,323.0,-0.7,1.8,2470.879,13.29,0.02,143.1
2022-06-28T02:31:03,42.805,6.029,0.012,-0.013,-0.005,105.0,104.0,103.0,13.4,1505.2,330.7,-0.7,1.8,2470.879,13.29,0.017,137.3
2022-06-28T02:34:03,42.805,6.029,0.008,-0.008,-0.018,106.0,104.0,103.0,13.4,1505.2,324.6,-0.8,1.8,2470.855,13.29,0.011,135.0
2022-06-28T02:37:03,42.805,6.029,0.03,0.002,-0.007,106.0,104.0,103.0,13.4,1505.2,324.8,-0.7,1.8,2470.866,13.29,0.03,86.2
2022-06-28T02:40:03,42.805,6.029,0.028,0.0,-0.003,105.0,106.0,101.0,13.4,1505.2,326.7,-0.8,1.8,2470.871,13.29,0.028,90.0
2022-06-28T02:43:03,42.805,6.029,0.025,-0.009,0.022,105.0,104.0,102.0,13.4,1505.2,333.2,-0.8,1.8,2470.875,13.29,0.026,109.8
2022-06-28T02:46:03,42.805,6.029,0.012,-0.026,-0.022,105.0,104.0,102.0,13.4,1505.2,328.3,-0.7,1.8,2470.887,13.29,0.028,155.2
2022-06-28T02:49:03,42.805,6.029,0.013,-0.002,-0.019,106.0,103.0,102.0,13.4,1505.2,323.1,-0.8,1.8,2470.886,13.29,0.013,98.7
2022-06-28T02:52:03,42.805,6.029,-0.003,-0.017,-0.018,105.0,104.0,102.0,13.4,1505.2,321.1,-0.8,1.8,2470.865,13.29,0.017,190.0
2022-06-28T02:55:03,42.805,6.029,0.027,0.012,-0.02,104.0,103.0,103.0,13.3,1505.2,327.6,-0.7,1.8,2470.86,13.29,0.029,66.0
2022-06-28T02:58:03,42.805,6.029,0.002,-0.003,-0.032,104.0,106.0,103.0,13.4,1505.2,328.5,-0.8,1.8,2470.88,13.29,0.003,146.3
2022-06-28T03:04:03,42.805,6.029,0.013,-0.004,-0.034,104.0,104.0,102.0,13.4,1505.2,319.6,-0.8,1.8,2470.921,13.28,0.013,107.1
2022-06-28T03:07:03,42.805,6.029,0.033,-0.024,-0.015,103.0,103.0,102.0,13.4,1505.2,320.9,-0.8,1.8,2470.911,13.28,0.04,126.0
2022-06-28T03:10:03,42.805,6.029,0.013,-0.004,-0.019,105.0,103.0,103.0,13.4,1505.2,324.0,-0.8,1.8,2470.93,13.28,0.013,107.1
2022-06-28T03:13:03,42.805,6.029,0.007,-0.012,-0.027,104.0,105.0,103.0,13.4,1505.2,329.5,-0.7,1.8,2470.933,13.28,0.013,149.7
2022-06-28T03:16:03,42.805,6.029,0.015,-0.01,-0.007,105.0,104.0,103.0,13.4,1505.2,329.7,-0.8,1.8,2470.888,13.29,0.018,123.7
2022-06-28T03:19:03,42.805,6.029,0.017,-0.003,0.012,105.0,105.0,102.0,13.3,1505.2,322.3,-0.8,1.8,2470.88,13.29,0.017,100.0
2022-06-28T03:22:03,42.805,6.029,0.023,0.004,-0.016,104.0,105.0,103.0,13.4,1505.2,320.8,-0.8,1.8,2470.904,13.29,0.023,80.1
2022-06-28T03:25:03,42.805,6.029,0.019,-0.003,-0.03,105.0,106.0,102.0,13.4,1505.2,324.9,-0.7,1.8,2470.906,13.29,0.019,99.0
2022-06-28T03:28:03,42.805,6.029,0.007,0.0,-0.01,105.0,105.0,103.0,13.4,1505.2,323.1,-0.7,1.8,2470.919,13.29,0.007,90.0
2022-06-28T03:31:03,42.805,6.029,0.04,-0.004,-0.012,105.0,105.0,102.0,13.4,1505.2,332.5,-0.8,1.8,2470.858,13.29,0.04,95.7
2022-06-28T03:34:03,42.805,6.029,0.013,-0.007,-0.015,105.0,105.0,102.0,13.4,1505.2,325.3,-0.7,1.8,2470.89,13.29,0.014,118.3
2022-06-28T03:37:03,42.805,6.029,0.026,0.009,-0.045,105.0,106.0,103.0,13.4,1505.2,330.0,-0.8,1.8,2470.938,13.29,0.027,70.9
2022-06-28T03:40:03,42.805,6.029,0.007,-0.002,-0.015,106.0,105.0,102.0,13.4,1505.2,321.7,-0.8,1.8,2470.91,13.29,0.007,105.9
2022-06-28T03:43:03,42.805,6.029,0.031,0.0,-0.012,104.0,106.0,103.0,13.3,1505.2,326.4,-0.7,1.8,2470.852,13.29,0.03,90.0
2022-06-28T03:46:03,42.805,6.029,0.04,0.013,-0.001,106.0,104.0,103.0,13.4,1505.2,322.3,-0.7,1.8,2470.921,13.29,0.042,72.0
2022-06-28T03:49:03,42.805,6.029,0.023,-0.014,-0.015,106.0,105.0,102.0,13.4,1505.2,325.3,-0.8,1.8,2470.879,13.29,0.026,121.3
2022-06-28T03:52:03,42.805,6.029,0.01,-0.013,-0.001,107.0,104.0,102.0,13.4,1505.2,327.4,-0.8,1.8,2470.917,13.29,0.016,142.4
2022-06-28T03:55:03,42.805,6.029,0.007,-0.007,-0.009,105.0,104.0,103.0,13.3,1505.2,319.9,-0.8,1.8,2470.9,13.29,0.009,135.0
2022-06-28T03:58:03,42.805,6.029,0.009,-0.018,-0.051,105.0,105.0,103.0,13.4,1505.2,330.8,-0.8,1.8,2470.864,13.29,0.02,153.4
2022-06-28T04:04:03,42.805,6.029,0.021,0.0,-0.024,104.0,103.0,104.0,13.4,1505.2,326.7,-0.7,1.9,2470.936,13.28,0.021,90.0
2022-06-28T04:07:03,42.805,6.029,-0.009,-0.013,-0.011,104.0,104.0,103.0,13.3,1505.2,331.8,-0.7,1.8,2470.94,13.28,0.015,214.7
2022-06-28T04:10:03,42.805,6.029,0.022,0.001,-0.025,105.0,105.0,102.0,13.3,1505.2,322.9,-0.7,1.8,2470.913,13.28,0.022,87.4
2022-06-28T04:13:03,42.805,6.029,0.017,-0.013,0.006,104.0,104.0,102.0,13.4,1505.2,328.3,-0.8,1.8,2470.969,13.28,0.021,127.4
2022-06-28T04:16:03,42.805,6.029,0.006,0.002,-0.013,105.0,105.0,103.0,13.4,1505.2,321.4,-0.7,1.8,2470.932,13.29,0.006,71.6
2022-06-28T04:19:03,42.805,6.029,0.015,0.001,-0.031,106.0,104.0,103.0,13.4,1505.2,322.3,-0.7,1.8,2470.933,13.29,0.015,86.2
2022-06-28T04:22:03,42.805,6.029,0.036,-0.01,-0.028,105.0,105.0,101.0,13.4,1505.2,333.9,-0.8,1.8,2470.939,13.29,0.037,105.5
2022-06-28T04:25:03,42.805,6.029,0.021,-0.001,-0.037,106.0,104.0,103.0,13.4,1505.2,330.3,-0.7,1.8,2470.928,13.29,0.021,92.7
2022-06-28T04:28:03,42.805,6.029,0.017,-0.004,-0.008,105.0,105.0,102.0,13.4,1505.2,327.1,-0.8,1.8,2470.923,13.29,0.017,103.2
2022-06-28T04:31:03,42.805,6.029,0.024,-0.014,-0.039,104.0,105.0,103.0,13.4,1505.2,324.9,-0.7,1.8,2470.952,13.29,0.027,120.3
2022-06-28T04:34:03,42.805,6.029,0.01,-0.018,-0.004,106.0,105.0,102.0,13.4,1505.2,328.7,-0.8,1.8,2470.907,13.29,0.02,150.9
2022-06-28T04:37:03,42.805,6.029,0.021,0.0,-0.024,107.0,104.0,103.0,13.4,1505.2,327.5,-0.8,1.8,2470.938,13.29,0.021,90.0
2022-06-28T04:40:03,42.805,6.029,0.015,-0.013,-0.001,105.0,106.0,102.0,13.4,1505.2,323.9,-0.8,1.8,2470.924,13.29,0.019,130.9
2022-06-28T04:43:03,42.805,6.029,0.02,0.0,-0.026,105.0,106.0,103.0,13.4,1505.2,328.0,-0.8,1.8,2470.953,13.29,0.02,90.0
2022-06-28T04:46:03,42.805,6.029,0.014,-0.025,-0.012,105.0,104.0,103.0,13.4,1505.2,331.5,-0.7,1.8,2470.905,13.29,0.028,150.7
2022-06-28T04:49:03,42.805,6.029,0.031,-0.006,-0.011,103.0,104.0,103.0,13.3,1505.2,322.0,-0.7,1.8,2470.98,13.29,0.031,101.0
2022-06-28T04:52:03,42.805,6.029,0.009,0.001,-0.005,103.0,104.0,103.0,13.3,1505.2,326.1,-0.7,1.8,2470.923,13.29,0.009,83.7
2022-06-28T04:55:03,42.805,6.029,0.008,-0.011,-0.004,105.0,104.0,102.0,13.4,1505.2,320.9,-0.7,1.8,2470.958,13.29,0.013,144.0
2022-06-28T04:58:03,42.805,6.029,0.028,0.0,-0.014,104.0,105.0,102.0,13.4,1505.2,319.6,-0.8,1.9,2470.947,13.29,0.028,90.0
2022-06-28T05:04:03,42.805,6.029,0.024,-0.022,0.0,103.0,104.0,103.0,13.4,1505.2,323.2,-0.8,1.8,2470.967,13.28,0.032,132.5
2022-06-28T05:07:03,42.805,6.029,0.015,-0.005,-0.019,105.0,105.0,103.0,13.4,1505.2,333.4,-0.7,1.8,2471.014,13.28,0.015,108.4
2022-06-28T05:10:03,42.805,6.029,0.014,-0.001,-0.013,104.0,103.0,102.0,13.4,1505.2,329.3,-0.7,1.9,2470.989,13.28,0.014,94.1
2022-06-28T05:13:03,42.805,6.029,0.009,-0.021,-0.04,104.0,104.0,102.0,13.4,1505.2,319.0,-0.8,1.8,2470.968,13.28,0.022,156.8
2022-06-28T05:16:03,42.805,6.029,0.023,-0.004,0.0,104.0,105.0,102.0,13.4,1505.2,323.8,-0.8,1.8,2470.984,13.29,0.023,99.9
2022-06-28T05:19:03,42.805,6.029,0.035,-0.002,-0.025,104.0,105.0,101.0,13.3,1505.2,332.7,-0.8,1.8,2470.972,13.29,0.035,93.3
2022-06-28T05:22:03,42.805,6.029,0.019,-0.004,-0.024,104.0,105.0,103.0,13.3,1505.2,323.5,-0.8,1.8,2470.955,13.29,0.019,101.9
2022-06-28T05:25:03,42.805,6.029,0.008,-0.015,-0.02,106.0,103.0,103.0,13.3,1505.2,321.1,-0.7,1.8,2470.89,13.29,0.017,151.9
2022-06-28T05:28:03,42.805,6.029,0.02,-0.017,-0.001,105.0,103.0,102.0,13.4,1505.2,329.7,-0.8,1.9,2470.956,13.29,0.026,130.4
2022-06-28T05:31:03,42.805,6.029,0.014,0.002,-0.02,105.0,106.0,102.0,13.3,1505.2,328.9,-0.8,1.8,2470.951,13.29,0.014,81.9
2022-06-28T05:34:03,42.805,6.029,0.018,-0.001,-0.014,105.0,105.0,102.0,13.4,1505.2,329.5,-0.8,1.8,2470.942,13.29,0.018,93.2
2022-06-28T05:37:03,42.805,6.029,0.011,-0.001,-0.037,104.0,105.0,102.0,13.4,1505.2,324.5,-0.8,1.8,2470.948,13.29,0.011,95.2
2022-06-28T05:40:03,42.805,6.029,0.011,-0.003,0.001,106.0,104.0,102.0,13.3,1505.2,326.3,-0.8,1.9,2470.951,13.29,0.011,105.3
2022-06-28T05:43:03,42.805,6.029,0.017,0.007,-0.001,103.0,104.0,102.0,13.4,1505.2,328.0,-0.7,1.8,2470.971,13.29,0.018,67.6
2022-06-28T05:46:03,42.805,6.029,0.005,-0.016,-0.006,105.0,105.0,102.0,13.4,1505.2,328.1,-0.8,1.8,2470.932,13.29,0.016,162.6
2022-06-28T05:49:03,42.805,6.029,0.03,-0.004,-0.004,104.0,105.0,102.0,13.4,1505.2,330.6,-0.7,1.8,2470.931,13.29,0.03,97.6
2022-06-28T05:52:03,42.805,6.029,0.017,-0.009,-0.012,104.0,103.0,104.0,13.4,1505.2,321.1,-0.8,1.8,2470.955,13.29,0.019,117.9
2022-06-28T05:55:03,42.805,6.029,0.014,0.004,0.005,103.0,105.0,103.0,13.4,1505.2,330.5,-0.8,1.8,2470.991,13.29,0.014,74.1
2022-06-28T05:58:03,42.805,6.029,0.017,0.002,-0.007,106.0,104.0,101.0,13.4,1505.2,322.6,-0.8,1.8,2470.96,13.29,0.017,83.3
2022-06-28T06:04:03,42.805,6.029,0.011,-0.005,-0.023,104.0,106.0,102.0,13.4,1505.2,324.8,-0.7,1.8,2470.984,13.28,0.012,114.4
2022-06-28T06:07:03,42.805,6.029,0.009,-0.014,-0.018,105.0,105.0,102.0,13.3,1505.2,324.5,-0.7,1.8,2470.984,13.28,0.016,147.3
2022-06-28T06:10:03,42.805,6.029,0.002,0.005,-0.048,107.0,105.0,101.0,13.4,1505.2,324.6,-0.8,1.8,2470.996,13.28,0.005,21.8
2022-06-28T06:13:03,42.805,6.029,0.045,0.005,-0.027,106.0,103.0,102.0,13.4,1505.2,321.8,-0.8,1.9,2470.966,13.28,0.045,83.7
2022-06-28T06:16:03,42.805,6.029,0.021,-0.007,-0.047,104.0,104.0,103.0,13.3,1505.2,323.6,-0.8,1.8,2470.968,13.29,0.022,108.4
2022-06-28T06:19:03,42.805,6.029,0.021,-0.004,-0.046,106.0,105.0,103.0,13.4,1505.2,330.5,-0.8,1.9,2470.988,13.29,0.021,100.8
2022-06-28T06:22:03,42.805,6.029,0.022,-0.005,-0.014,103.0,105.0,103.0,13.4,1505.2,327.7,-0.7,1.8,2470.961,13.29,0.022,102.8
2022-06-28T06:25:03,42.805,6.029,0.024,-0.005,-0.001,105.0,105.0,101.0,13.4,1505.2,325.2,-0.7,1.8,2470.964,13.29,0.024,101.8
2022-06-28T06:28:03,42.805,6.029,0.014,-0.014,-0.008,105.0,105.0,103.0,13.4,1505.2,332.7,-0.7,1.8,2470.987,13.29,0.019,135.0
2022-06-28T06:31:03,42.805,6.029,0.026,-0.017,-0.004,105.0,104.0,102.0,13.4,1505.2,332.9,-0.7,1.8,2470.951,13.29,0.031,123.2
2022-06-28T06:34:03,42.805,6.029,0.036,-0.004,-0.016,104.0,105.0,102.0,13.4,1505.2,330.0,-0.8,1.8,2470.967,13.29,0.036,96.3
2022-06-28T06:37:03,42.805,6.029,0.02,0.002,-0.036,105.0,103.0,103.0,13.3,1505.2,324.4,-0.8,1.8,2470.952,13.29,0.02,84.3
2022-06-28T06:40:03,42.805,6.029,0.035,-0.026,-0.041,104.0,104.0,101.0,13.4,1505.2,325.0,-0.8,1.8,2470.97,13.29,0.043,126.6
2022-06-28T06:43:03,42.805,6.029,0.048,-0.002,0.02,105.0,103.0,101.0,13.4,1505.2,327.2,-0.8,1.9,2470.969,13.29,0.048,92.4
2022-06-28T06:46:03,42.805,6.029,0.009,-0.013,0.007,104.0,105.0,102.0,13.3,1505.2,327.2,-0.8,1.8,2470.957,13.29,0.015,145.3
2022-06-28T06:49:03,42.805,6.029,0.028,-0.018,-0.034,103.0,104.0,102.0,13.4,1505.2,321.9,-0.8,1.8,2470.93,13.29,0.033,122.7
2022-06-28T06:52:03,42.805,6.029,0.013,-0.01,-0.002,105.0,105.0,101.0,13.3,1505.2,332.0,-0.8,1.8,2470.98,13.29,0.016,127.6
2022-06-28T06:55:03,42.805,6.029,0.014,-0.007,-0.012,105.0,105.0,102.0,13.3,1505.2,320.4,-0.8,1.9,2470.945,13.29,0.015,116.6
2022-06-28T06:58:03,42.805,6.029,0.026,-0.019,-0.014,103.0,105.0,101.0,13.4,1505.2,320.7,-0.8,1.8,2470.948,13.29,0.032,126.2
2022-06-28T07:04:03,42.805,6.029,0.013,-0.019,-0.04,105.0,103.0,103.0,13.4,1505.2,324.4,-0.8,1.8,2470.994,13.28,0.023,145.6
2022-06-28T07:07:03,42.805,6.029,0.018,-0.011,-0.029,104.0,105.0,101.0,13.4,1505.2,329.7,-0.7,1.8,2471.031,13.28,0.021,121.4
2022-06-28T07:10:03,42.805,6.029,0.017,-0.002,0.002,104.0,105.0,103.0,13.4,1505.2,330.6,-0.8,1.9,2470.935,13.28,0.017,96.7
2022-06-28T07:13:03,42.805,6.029,0.011,-0.008,0.0,105.0,104.0,103.0,13.4,1505.2,327.5,-0.7,1.8,2470.947,13.28,0.013,126.0
2022-06-28T07:16:03,42.805,6.029,0.033,-0.006,-0.027,103.0,103.0,101.0,13.4,1505.2,320.4,-0.8,1.8,2470.957,13.28,0.033,100.3
2022-06-28T07:19:03,42.805,6.029,0.002,-0.029,-0.05,103.0,104.0,101.0,13.4,1505.2,329.3,-0.8,1.8,2470.947,13.28,0.029,176.1
2022-06-28T07:22:03,42.805,6.029,0.012,0.006,-0.01,105.0,106.0,102.0,13.4,1505.2,323.2,-0.8,1.8,2470.94,13.29,0.013,63.4
2022-06-28T07:25:03,42.805,6.029,0.024,0.006,-0.014,104.0,105.0,103.0,13.3,1505.2,319.8,-0.8,1.8,2470.939,13.29,0.024,76.0
2022-06-28T07:28:03,42.805,6.029,0.019,-0.012,0.0,105.0,104.0,103.0,13.4,1505.2,324.8,-0.8,1.8,2470.931,13.29,0.022,122.3
2022-06-28T07:31:03,42.805,6.029,0.014,-0.012,-0.031,105.0,105.0,102.0,13.4,1505.2,332.2,-0.8,1.8,2470.931,13.29,0.018,130.6
2022-06-28T07:34:03,42.805,6.029,0.023,-0.01,-0.012,105.0,105.0,102.0,13.4,1505.2,324.1,-0.7,1.8,2470.936,13.29,0.025,113.5
2022-06-28T07:37:03,42.805,6.029,0.014,-0.01,0.007,103.0,104.0,102.0,13.3,1505.2,326.7,-0.8,1.8,2470.97,13.29,0.017,125.5
2022-06-28T07:40:03,42.805,6.029,0.015,-0.01,-0.018,104.0,104.0,103.0,13.4,1505.2,330.3,-0.8,1.8,2470.978,13.29,0.018,123.7
2022-06-28T07:43:03,42.805,6.029,0.005,-0.005,-0.021,104.0,105.0,103.0,13.3,1505.2,327.6,-0.7,1.9,2470.931,13.29,0.007,135.0
2022-06-28T07:46:03,42.805,6.029,0.002,0.006,-0.024,105.0,104.0,102.0,13.3,1505.2,328.5,-0.7,1.8,2470.938,13.29,0.006,18.4
2022-06-28T07:49:03,42.805,6.029,0.024,-0.014,0.011,105.0,104.0,102.0,13.3,1505.2,330.8,-0.7,1.8,2470.972,13.29,0.027,120.3
2022-06-28T07:52:03,42.805,6.029,0.044,-0.017,0.001,104.0,104.0,102.0,13.4,1505.2,326.4,-0.7,1.8,2470.933,13.29,0.047,111.1
2022-06-28T07:55:03,42.805,6.029,0.033,0.006,-0.031,106.0,105.0,102.0,13.4,1505.2,324.5,-0.8,1.8,2470.927,13.29,0.033,79.7
2022-06-28T07:58:03,42.805,6.029,0.03,-0.001,-0.019,104.0,104.0,104.0,13.3,1505.2,328.7,-0.8,1.8,2470.944,13.29,0.03,91.9
2022-06-28T08:04:03,42.805,6.029,0.027,0.004,0.014,104.0,104.0,101.0,13.4,1505.2,325.3,-0.7,1.8,2470.957,13.28,0.027,81.6
2022-06-28T08:07:03,42.805,6.029,0.028,-0.007,-0.052,107.0,103.0,102.0,13.4,1505.2,323.2,-0.8,1.9,2470.961,13.28,0.028,104.0
2022-06-28T08:10:03,42.805,6.029,0.011,-0.001,-0.02,104.0,103.0,102.0,13.4,1505.2,325.8,-0.8,1.8,2470.94,13.28,0.011,95.2
2022-06-28T08:13:03,42.805,6.029,0.028,-0.003,-0.022,103.0,104.0,101.0,13.3,1505.2,326.1,-0.8,1.8,2470.963,13.28,0.028,96.1
2022-06-28T08:16:03,42.805,6.029,0.036,0.01,0.022,104.0,105.0,101.0,13.4,1505.2,323.5,-0.8,1.8,2470.953,13.28,0.037,74.5
2022-06-28T08:19:03,42.805,6.029,0.013,-0.001,-0.01,104.0,105.0,103.0,13.4,1505.2,328.4,-0.7,1.8,2470.949,13.28,0.013,94.4
2022-06-28T08:22:03,42.805,6.029,0.015,-0.002,-0.028,106.0,103.0,102.0,13.4,1505.2,328.3,-0.8,1.8,2470.939,13.29,0.015,97.6
2022-06-28T08:25:03,42.805,6.029,0.015,-0.016,-0.032,104.0,103.0,102.0,13.3,1505.2,332.9,-0.8,1.8,2470.926,13.29,0.021,136.9
2022-06-28T08:28:03,42.805,6.029,0.017,-0.005,0.007,104.0,106.0,102.0,13.3,1505.2,332.3,-0.8,1.8,2470.893,13.29,0.017,106.4
2022-06-28T08:31:03,42.805,6.029,0.028,-0.014,-0.031,103.0,104.0,102.0,13.3,1505.2,325.4,-0.8,1.8,2470.914,13.29,0.031,116.6
2022-06-28T08:34:03,42.805,6.029,0.018,-0.037,-0.027,103.0,104.0,102.0,13.4,1505.2,333.4,-0.8,1.9,2470.923,13.29,0.041,154.1
2022-06-28T08:37:03,42.805,6.029,0.039,-0.006,-0.011,105.0,104.0,102.0,13.3,1505.2,329.9,-0.7,1.8,2470.884,13.29,0.039,98.7
2022-06-28T08:40:03,42.805,6.029,0.038,-0.019,0.021,104.0,105.0,102.0,13.4,1505.2,330.3,-0.8,1.8,2470.929,13.29,0.042,116.6
2022-06-28T08:43:03,42.805,6.029,0.03,-0.018,-0.036,104.0,105.0,102.0,13.4,1505.2,331.8,-0.8,1.8,2470.916,13.29,0.034,121.0
2022-06-28T08:46:03,42.805,6.029,0.018,-0.004,-0.005,104.0,104.0,102.0,13.4,1505.2,331.5,-0.8,1.8,2470.885,13.29,0.018,102.5
2022-06-28T08:49:03,42.805,6.029,0.035,0.001,0.012,104.0,104.0,102.0,13.4,1505.2,319.4,-0.7,1.8,2470.922,13.29,0.035,88.4
2022-06-28T08:52:03,42.805,6.029,0.02,-0.005,-0.008,104.0,104.0,102.0,13.4,1505.2,327.3,-0.8,1.8,2470.914,13.29,0.02,104.0
2022-06-28T08:55:03,42.805,6.029,0.017,0.01,0.002,105.0,104.0,102.0,13.4,1505.2,327.4,-0.8,1.8,2470.887,13.29,0.019,59.5
2022-06-28T08:58:03,42.805,6.029,0.029,-0.011,-0.005,105.0,102.0,102.0,13.4,1505.2,319.9,-0.8,1.8,2470.935,13.29,0.031,110.8
2022-06-28T09:04:03,42.805,6.029,0.005,0.001,-0.007,103.0,104.0,102.0,13.4,1505.2,329.0,-0.8,1.8,2470.914,13.28,0.005,78.7
2022-06-28T09:07:03,42.805,6.029,0.027,-0.02,-0.039,105.0,103.0,102.0,13.4,1505.2,329.2,-0.8,1.8,2470.925,13.28,0.033,126.5
2022-06-28T09:10:03,42.805,6.029,0.009,-0.017,0.018,104.0,103.0,102.0,13.3,1505.2,323.4,-0.7,1.8,2470.916,13.28,0.019,152.1
2022-06-28T09:13:03,42.805,6.029,0.039,0.004,-0.027,103.0,104.0,101.0,13.4,1505.2,326.5,-0.7,1.8,2470.89,13.28,0.039,84.1
2022-06-28T09:16:03,42.805,6.029,0.03,0.001,-0.008,105.0,104.0,102.0,13.4,1505.2,332.9,-0.7,1.8,2470.911,13.28,0.03,88.1
2022-06-28T09:19:03,42.805,6.029,0.016,-0.024,-0.021,103.0,103.0,103.0,13.4,1505.2,332.7,-0.7,1.9,2470.854,13.28,0.028,146.3
2022-06-28T09:22:03,42.805,6.029,0.031,-0.023,0.005,105.0,104.0,102.0,13.3,1505.2,328.8,-0.8,1.8,2470.862,13.29,0.038,126.6
2022-06-28T09:25:03,42.805,6.029,0.017,-0.001,-0.01,105.0,105.0,101.0,13.3,1505.2,327.0,-0.8,1.8,2470.885,13.29,0.017,93.4
2022-06-28T09:28:03,42.805,6.029,0.045,-0.011,-0.013,104.0,106.0,103.0,13.3,1505.2,323.7,-0.8,1.8,2470.877,13.29,0.046,103.7
2022-06-28T09:31:03,42.805,6.029,0.009,-0.018,-0.033,104.0,104.0,102.0,13.4,1505.2,324.4,-0.8,1.8,2470.845,13.29,0.02,153.4
2022-06-28T09:34:03,42.805,6.029,0.015,-0.012,-0.005,103.0,104.0,102.0,13.4,1505.2,324.0,-0.8,1.8,2470.872,13.29,0.019,128.7
2022-06-28T09:37:03,42.805,6.029,0.027,-0.012,-0.017,105.0,104.0,101.0,13.3,1505.2,318.9,-0.8,1.8,2470.863,13.29,0.029,114.0
2022-06-28T09:40:03,42.805,6.029,0.029,-0.019,0.013,104.0,103.0,101.0,13.4,1505.2,328.8,-0.7,1.8,2470.853,13.29,0.034,123.2
2022-06-28T09:43:03,42.805,6.029,0.035,-0.003,0.003,104.0,105.0,102.0,13.4,1505.2,328.9,-0.7,1.8,2470.854,13.29,0.035,94.9
2022-06-28T09:46:03,42.805,6.029,0.01,0.004,0.019,104.0,103.0,104.0,13.3,1505.2,322.8,-0.7,1.8,2470.849,13.29,0.01,68.2
2022-06-28T09:49:03,42.805,6.029,0.029,0.013,-0.012,104.0,106.0,103.0,13.4,1505.2,321.1,-0.8,1.8,2470.828,13.29,0.031,65.9
2022-06-28T09:52:03,42.805,6.029,0.008,-0.02,-0.03,104.0,103.0,102.0,13.3,1505.2,328.7,-0.8,1.8,2470.879,13.29,0.021,158.2
2022-06-28T09:55:03,42.805,6.029,0.007,-0.009,-0.013,104.0,104.0,102.0,13.4,1505.2,328.2,-0.7,1.8,2470.856,13.29,0.011,142.1
2022-06-28T09:58:03,42.805,6.029,0.022,-0.016,-0.013,104.0,103.0,102.0,13.4,1505.2,320.4,-0.8,1.8,2470.856,13.29,0.027,126.0